This is the latest recevied weather packets stored in our database for station/object EA1IRT-1. If no packets are shown the sender has not sent any weather packets the latest 10 day(s).
| Time | Temp. | Humidity | Pressure | Rain* | Wind** | Luminosity | Snow |
|---|---|---|---|---|---|---|---|
| 1778104894 | 181.67° C | 100% | - | - | - | - | - |
| 1778103945 | 12.78° C | 88% | 1014.1 hPa | - | - | - | - |
| 1778103047 | 181.67° C | 100% | - | - | - | - | - |
| 1778102056 | 13.33° C | 100% | - | - | - | - | - |
| 1778101065 | 13.33° C | 85% | 1014.3 hPa | - | - | - | - |
| 1778100165 | 13.89° C | 84% | 1014.2 hPa | - | - | - | - |
| 1778099265 | 13.89° C | 82% | 1014.1 hPa | - | - | - | - |
| 1778098365 | 14.44° C | 80% | 1014.1 hPa | - | - | - | - |
| 1778097465 | 14.44° C | 77% | 1014.2 hPa | - | - | - | - |
| 1778096571 | 15° C | 76% | 1014 hPa | - | - | - | - |
| 1778095665 | 15.56° C | 76% | 1014 hPa | - | - | - | - |
| 1778094764 | 15.56° C | 75% | 1013.9 hPa | - | - | - | - |
| 1778093864 | 16.11° C | 73% | 1013.9 hPa | - | - | - | - |
| 1778092964 | 16.67° C | 71% | 1013.9 hPa | - | - | - | - |
| 1778092064 | 16.67° C | 72% | 1013.9 hPa | - | - | - | - |
| 1778091139 | 16.67° C | 70% | 1014 hPa | - | - | - | - |
| 1778090216 | 16.67° C | 69% | 1013.9 hPa | - | - | - | - |
| 1778089316 | 17.22° C | 68% | 1014 hPa | - | - | - | - |
| 1778088416 | 17.22° C | 66% | 1014.1 hPa | - | - | - | - |
| 1778087516 | 17.78° C | 65% | 1014.1 hPa | - | - | - | - |
| 1778086616 | 17.78° C | 63% | 1014.2 hPa | - | - | - | - |
| 1778085716 | 17.78° C | 63% | 1014.2 hPa | - | - | - | - |
| 1778084816 | 18.33° C | 62% | 1014.1 hPa | - | - | - | - |
| 1778083915 | 18.89° C | 56% | 1014 hPa | - | - | - | - |
| 1778083015 | 18.89° C | 59% | 1014.2 hPa | - | - | - | - |
* Rain since midnight (hover to see other rain measurements)
** Current wind speed in m/s (hover to see current wind gust speed)